Vorticity
nan nan nan nan nan nan nan nan nan nan nan nan nan nan nan nan nan nan nan nan nan nan nan nan nan nan nan nan nan nan nan nan nan nan nan nan nan nan nan nan nan nan nan nan nan
nan 6 6 6 6 7 7 7 7 7 7 8 8 8 8 9 16 16 12 11 17 9 8 2 5 2 0 5 7 6 6 7 7 10 10 9 5 7 5 3 6 10 18 12 nan
nan 6 6 6 6 7 7 7 6 7 7 8 8 9 9 14 17 12 8 19 12 4 5 5 6 3 1 7 7 2 7 3 3 4 15 11 10 3 6 12 11 12 13 6 nan
nan 6 6 7 7 7 6 7 8 7 8 9 9 10 13 14 8 5 18 21 12 7 2 8 5 2 6 7 4 2 5 -1 0 5 9 12 11 6 1 11 20 16 10 6 nan
nan 7 7 7 7 7 7 8 8 8 9 9 11 13 14 8 6 9 20 16 9 7 7 4 4 3 4 6 7 11 4 5 3 1 8 16 5 6 10 6 16 15 11 5 nan
nan 7 7 7 7 7 9 9 9 10 11 14 16 12 10 5 8 5 13 12 6 8 8 3 4 4 8 9 2 7 8 5 7 10 10 6 8 4 13 9 13 11 9 6 nan
nan 7 7 7 7 8 8 9 11 15 19 22 18 8 7 11 3 3 5 6 12 11 8 4 7 6 5 10 6 1 7 10 13 9 10 7 9 11 8 8 8 10 9 8 nan
nan 8 7 7 7 7 8 10 16 24 24 23 9 3 9 12 6 15 9 5 10 9 9 12 5 6 4 7 13 11 9 9 12 8 15 11 12 16 5 7 6 8 9 8 nan
nan 7 8 7 8 9 9 14 27 22 15 8 2 4 11 10 8 8 11 12 11 11 7 11 10 11 8 5 8 8 11 13 3 7 12 10 8 15 7 5 7 8 8 8 nan
nan 7 8 7 8 8 15 28 22 9 0 -0 9 10 4 1 2 8 15 16 12 10 6 4 9 8 6 8 7 8 5 6 10 11 7 6 1 12 9 5 7 8 8 8 nan
nan 8 7 7 8 12 24 25 10 6 -1 4 9 10 6 7 13 11 12 12 10 7 4 7 4 9 8 4 -3 5 16 6 9 10 13 8 1 8 10 7 7 7 8 8 nan
nan 8 8 8 8 20 23 11 8 7 11 12 9 10 10 10 19 15 7 10 9 5 4 5 11 6 11 10 9 4 6 7 1 8 14 9 3 6 7 8 8 7 8 8 nan
nan 8 9 9 19 22 15 7 5 11 9 10 9 11 13 11 14 15 8 9 14 8 7 -4 11 14 11 11 11 6 7 8 4 7 6 10 12 6 6 8 9 8 8 10 nan
nan 9 9 19 22 15 8 -1 10 14 10 10 10 8 7 10 9 8 13 12 15 15 7 7 2 12 11 11 11 9 9 5 12 7 9 10 10 12 7 9 8 8 8 7 nan
nan 10 17 19 16 8 1 8 15 13 9 3 9 7 8 11 10 11 14 15 12 12 10 6 9 8 6 11 10 10 15 6 5 4 9 6 7 15 15 8 9 10 8 7 nan
nan 14 24 19 5 3 5 15 14 7 10 6 3 12 10 9 13 11 13 9 10 16 10 7 11 12 10 8 9 11 6 12 8 10 10 5 10 4 15 11 11 11 9 9 nan
nan 19 23 7 3 8 15 14 5 13 9 5 6 10 11 6 12 13 11 13 18 13 9 12 5 6 15 12 9 10 2 4 8 8 12 13 3 6 8 15 15 14 13 11 nan
nan 26 14 5 7 12 13 8 9 10 9 6 9 9 6 10 10 10 12 4 8 16 19 18 7 10 7 10 9 11 -1 4 7 5 5 12 8 12 4 11 12 14 19 14 nan
nan 21 4 5 12 12 12 9 10 10 6 10 12 9 8 8 7 7 6 4 3 17 18 21 13 16 7 6 10 11 8 -1 7 8 14 10 2 7 11 7 9 11 10 15 nan
nan 8 6 8 14 12 10 13 11 9 10 9 9 13 9 10 14 8 1 7 8 9 13 14 23 15 10 7 9 11 17 7 8 11 10 5 12 8 8 6 7 9 12 12 nan
nan 5 2 12 16 12 10 10 8 8 9 12 13 10 9 7 12 12 9 6 5 10 12 12 22 9 8 16 7 7 8 12 6 9 8 11 8 10 14 12 13 10 15 18 nan
nan 9 5 13 13 12 10 10 10 7 10 10 8 8 9 10 11 11 5 1 7 12 12 10 15 20 9 4 12 13 14 6 8 7 -0 7 15 16 14 7 8 10 10 18 nan
nan 10 11 14 14 11 9 7 10 10 10 10 9 7 9 10 10 9 8 4 5 10 8 14 19 10 13 11 14 15 10 13 4 11 13 5 1 6 9 8 4 5 8 17 nan
nan 13 7 11 12 12 10 9 6 8 10 9 10 9 9 6 10 10 7 4 7 10 12 11 7 10 8 2 15 22 11 10 8 10 8 11 7 -0 -6 -6 6 9 9 18 nan
nan 9 9 12 10 11 10 12 10 8 6 13 8 7 10 9 8 8 6 11 10 7 8 12 12 10 6 7 8 8 18 16 8 4 7 11 9 0 -2 2 8 9 9 20 nan
nan 11 7 9 11 9 10 10 13 7 10 12 7 11 9 11 9 9 7 8 4 7 10 11 11 9 13 15 10 11 11 10 14 13 5 5 11 8 5 7 5 5 10 13 nan
nan nan nan nan nan nan nan nan nan nan nan nan nan nan nan nan nan nan nan nan nan nan nan nan nan nan nan nan nan nan nan nan nan nan nan nan nan nan nan nan nan nan nan nan nan
CAPE
0 1 0 0 0 0 0 0 0 0 0 0 0 0 1 0 0 0 0 0 0 99 821 33 29 67 281 444 810 816 664 160 160 205 400 435 421 491 487 312 140 45 21 31 120
1 1 1 0 0 0 0 0 0 0 0 0 0 0 0 0 0 0 0 0 0 839 16 0 0 41 83 87 513 874 380 85 57 54 171 347 306 594 476 367 168 77 29 73 240
4 2 1 1 1 0 0 0 0 0 0 0 0 0 0 0 0 0 0 0 202 1012 0 0 0 0 0 0 67 290 364 64 22 10 13 305 330 490 222 334 307 131 49 109 406
6 6 5 3 1 0 0 0 0 0 0 0 1 0 0 0 0 0 0 0 131 142 0 0 0 0 0 0 0 2 226 137 33 0 14 181 345 184 126 222 252 142 47 97 418
4 4 4 3 2 1 1 0 1 1 0 0 1 0 0 0 0 0 0 0 244 0 0 0 0 0 0 0 0 0 50 49 8 0 0 190 559 179 266 457 223 134 58 73 273
6 5 4 3 3 2 2 5 4 0 0 0 1 0 0 0 0 0 0 0 0 0 0 0 0 0 0 0 0 0 0 0 0 0 0 194 415 680 600 400 211 157 70 71 209
9 8 5 3 2 2 2 2 1 0 0 0 0 0 0 0 0 0 0 0 0 0 0 0 0 0 0 0 0 0 0 0 0 0 0 5 210 623 835 487 352 245 191 107 231
5 8 5 3 4 3 4 1 0 0 0 0 0 0 0 0 0 0 0 0 0 0 0 0 0 0 0 0 0 0 0 0 0 0 0 18 33 320 825 671 556 388 257 180 243
7 7 8 6 7 4 4 0 0 0 0 0 0 0 0 0 0 0 0 0 0 0 0 0 0 0 0 0 0 0 0 0 0 4 174 103 122 635 770 782 689 425 227 182 231
9 7 5 7 5 4 0 0 0 0 0 0 0 0 0 0 0 0 0 0 0 0 0 0 0 0 0 0 0 0 0 0 0 144 226 208 252 759 716 773 793 540 283 266 274
5 4 1 4 4 2 0 0 0 0 0 0 0 0 0 0 0 0 0 0 0 0 0 0 0 0 0 0 0 0 0 0 4 143 222 261 401 784 797 761 784 708 512 355 364
9 5 4 4 2 0 0 0 0 0 0 0 0 0 0 0 0 0 0 0 0 0 0 0 0 0 0 0 0 0 0 0 0 72 320 298 361 846 840 759 745 756 698 304 294
6 5 4 4 0 0 0 0 0 0 0 0 0 0 0 0 0 0 0 0 0 0 0 0 0 0 0 0 0 0 0 0 0 147 175 276 432 822 934 859 756 769 713 401 240
3 8 6 4 0 0 0 0 0 0 0 0 0 0 0 0 0 0 0 0 0 0 0 0 0 0 0 0 0 0 0 0 0 111 204 160 144 279 756 985 901 867 815 652 217
5 6 7 6 0 0 0 0 0 0 0 0 0 0 0 0 0 0 0 0 0 0 0 0 0 0 0 0 0 0 0 0 0 0 167 279 108 118 296 863 976 868 871 758 552
3 2 0 0 0 0 0 0 0 0 0 0 0 0 0 0 0 0 0 0 0 0 0 0 0 0 0 0 0 0 0 0 0 0 19 161 173 157 403 575 686 838 880 858 772
0 0 0 0 0 0 0 0 0 0 0 0 0 0 0 0 0 0 0 0 0 0 0 0 0 0 0 0 0 0 0 0 0 3 2 39 43 194 256 301 384 653 934 924 938
0 0 0 0 0 0 0 0 0 0 0 0 0 0 0 0 0 0 0 0 0 0 0 0 0 0 0 0 0 0 0 0 0 0 26 21 6 14 4 10 141 84 514 945 930
0 0 0 0 0 0 0 0 0 0 0 0 0 0 0 0 0 0 0 0 0 0 0 0 0 0 0 0 0 0 0 0 1 4 30 68 11 0 0 0 0 0 7 315 893
0 0 0 0 0 0 0 0 0 0 0 0 0 0 0 0 0 0 0 0 0 0 0 0 0 0 0 0 0 0 0 0 0 0 1 46 144 46 49 3 0 0 0 65 286
0 0 0 0 0 0 0 0 0 0 0 0 0 0 0 0 0 0 0 0 0 0 0 0 0 0 0 0 0 0 0 0 0 0 0 49 117 35 5 30 27 3 0 31 136
0 0 0 0 0 0 0 0 0 0 0 0 0 0 0 0 0 0 0 0 0 0 0 0 0 0 0 0 0 0 0 0 0 0 0 0 197 0 0 2 0 0 47 331 89
0 0 0 0 0 0 0 0 0 0 0 0 0 0 0 0 0 0 0 0 0 0 0 0 0 0 0 0 0 0 0 0 0 0 0 0 0 0 0 0 0 0 0 90 654
0 0 0 0 0 0 0 0 0 0 0 0 0 0 0 0 0 0 0 0 0 0 0 0 0 0 0 0 0 0 0 0 0 0 0 0 0 0 0 0 0 0 72 112 897
0 0 0 0 0 0 0 0 0 0 0 0 0 0 0 0 0 0 0 0 0 0 0 0 0 0 0 0 0 0 0 0 0 0 0 0 0 0 0 19 10 144 700 657 849
0 0 0 0 0 0 0 8 5 11 3 5 5 1 0 4 0 0 0 0 0 0 0 0 0 0 0 0 0 0 0 0 0 0 0 0 0 0 0 47 159 262 1346 1437 668
0 0 0 0 0 0 2 10 4 3 12 18 28 24 12 23 0 2 0 0 0 0 0 0 0 0 0 0 0 0 0 0 0 0 0 0 0 168 85 296 344 548 1556 2002 2160